{"data":{"norad_id":68600,"epoch":"2026-09-19T22:09:18.425088Z","epoch_age_seconds":116253,"freshness":"FRESH","line1":"1 68600U 26072AD  26262.92312992  .00000165  00000+0  50618-4 0  9997","line2":"2 68600  51.9003 116.7315 0000919 103.4830 256.6235 14.79930997 25422","mean_motion":14.79930997,"eccentricity":9.19e-5,"inclination_deg":51.9003,"raan_deg":116.7315,"arg_perigee_deg":103.483,"mean_anomaly_deg":256.6235,"bstar":5.0618e-5,"rev_number":2542,"period_min":97.301833863812,"perigee_km":628.89794646108,"apogee_km":630.18595785248,"semimajor_km":7007.6789521568,"source":"CELESTRAK","updated_at":"2026-09-20T09:00:24.355383Z"}}